Other Public Products
Issued by NWS Grand Forks, ND

Home | Current Version | Previous Version | Graphics & Text | Print | Product List | Glossary On
Versions: 1 2 3 4 5 6 7 8 9 10 11 12 13 14 15 16 17 18 19 20 21 22 23 24 25 26 27 28 29 30 31 32 33 34 35 36 37 38 39 40 41 42 43 44 45 46 47 48 49 50
000
FPUS83 KFGF 010710
OPUFGF
PRAIRIE TO PINES WEATHER ROUNDUP
NATIONAL WEATHER SERVICE EASTERN NORTH DAKOTA/GRAND FORKS ND
200 AM CDT WED APR 01 2015

 **SATELLITE DATA USED TO AUGMENT SKY COVER AT AUTOMATED STATIONS**
 *****  WEATHER ACROSS EASTERN NORTH DAKOTA  *****

CITY           SKY/WX    TMP DP  RH WIND       PRES   REMARKS
GRAND FORKS    PTCLDY    45  29  53 SE13      29.67F
GRAND FORKS AF PTCLDY    42  29  60 SE9       29.66F
GRAND CITY NWS   N/A     43 N/A N/A SE18        N/A
BUXTON         NOT AVBL
DEVILS LAKE    PTCLDY    43  30  61 SE15      29.58F
FARGO          PTCLDY    51  28  41 SE14      29.65F
WAHPETON ARPT  SUNNY     46  30  53 SE15G21   29.67F
$$

 *****  WEATHER ACROSS CENTRAL AND WESTERN NORTH DAKOTA  *****

CITY           SKY/WX    TMP DP  RH WIND       PRES   REMARKS
JAMESTOWN      MOCLDY    45  33  63 SE13      29.56F
BISMARCK       CLOUDY    48  37  65 E10       29.51F
MINOT          CLOUDY    47  33  58 E8        29.47F
MINOT AFB      CLOUDY    46  37  69 SE12      29.46F
GARRISON         N/A     46  36  68 E6        29.46F
WILLISTON      MOCLDY    55  36  48 SW6       29.39F
DICKINSON      CLOUDY    54  27  35 S7        29.44F
HETTINGER      CLOUDY    54  28  36 SE9       29.49F
$$

 *****  OTHER OBSERVATIONS NORTHEAST NORTH DAKOTA  *****

CITY           SKY/WX    TMP DP  RH WIND       PRES   REMARKS
WALHALLA         N/A     41  32  70 SE10      29.66F
LANGDON        NOT AVBL
CAVALIER       FAIR      41  32  70 SE7       29.67F
GRAFTON        NOT AVBL
CANDO          NOT AVBL
FORT TOTTEN      N/A     47  27  45 SE14      29.95S
ROLLA          FAIR      41  32  70 SE10G17   29.59F
RUGBY          NOT AVBL
 ***** THE ABOVE OBSERVATIONS ARE NON NWS ARE NOT QUALITY
        CONTROLLED AND MAY MIS-REPORT RAIN FOR SNOW...
$$

 *****  OTHER OBSERVATIONS SOUTHEAST NORTH DAKOTA *****

CITY           SKY/WX    TMP DP  RH WIND       PRES   REMARKS
COOPERSTOWN    NOT AVBL
VALLEY CITY    FAIR      46  32  57 SE14G22   29.61F
OAKES            N/A     45  36  70 SE9       29.58F
GWINNER        SUNNY     50  34  53 SE13        N/A
SHEYENNE NWR     N/A     46  32  58 SE9       29.95
BUFFALO        NOT AVBL
WYNDMERE       NOT AVBL
 ***** THE ABOVE OBSERVATIONS ARE NON NWS ARE NOT QUALITY
       CONTROLLED AND MAY MIS-REPORT RAIN FOR SNOW...
$$

  *****  WEATHER ACROSS NORTHERN MINNESOTA  *****

CITY           SKY/WX    TMP DP  RH WIND       PRES   REMARKS
FLAG ISLAND    MOCLDY    37  28  70 SE6       29.78F
WARROAD        CLOUDY    37  30  75 E7        29.78F
ROSEAU         MOCLDY    41  30  65 E8        29.76F
HALLOCK        CLEAR     45  30  57 SE18      29.69F
THF RVR FALLS  CLEAR     43  28  56 E13       29.73F
HALSTAD        NOT AVBL
FOSSTON        CLEAR     43  30  61 SE8       29.74F
BAUDETTE       MOCLDY    37  29  72 SE9       29.79F
WASKISH        MOCLDY    37  27  65 CALM      29.80F
CROOKSTON      PTCLDY    43  30  61 SE13      29.71F
$$
  *****  WEATHER ACROSS CENTRAL AND WEST MINNESOTA  *****

CITY           SKY/WX    TMP DP  RH WIND       PRES   REMARKS
BEMIDJI        PTCLDY    40  27  60 SE9       29.78F
PARK RAPIDS    PTCLDY    45  25  45 SE8       29.77F
WADENA         PTCLDY    39  27  60 E8        29.76F
DETROIT LAKES  PTCLDY    45  28  53 SE13      29.73F
MOORHEAD       PTCLDY    48  28  46 SE9       29.67F
FERGUS FALLS   PTCLDY    52  25  35 SE18      29.71F
ELBOW LAKE     FAIR      50  30  46 SE16G22   29.70F
MORRIS MN      PTCLDY    46  34  61 SE15      29.71F
STAPLES        PTCLDY    45  27  49 SE6       29.79S
WHEATON        PTCLDY    45  32  61 SE18      29.69F
$$
  *****  WEATHER ELSEWHERE ACROSS MINNESOTA  *****

CITY           SKY/WX    TMP DP  RH WIND       PRES   REMARKS
DULUTH         FOG       31  29  92 E14       29.91R VSB 3/4 WCI  21
INTRNTL FALLS  PTCLDY    34  28  79 SE7       29.83F
ELY            CLOUDY    30  28  93 SE8       29.90F WCI  23
CLOQUET        CLOUDY    32  30  93 E7        29.90R
BRAINERD       PTCLDY    44  25  47 SE7       29.82S
HIBBING        CLOUDY    33  28  81 SE9       29.88S
ALEXANDRIA     CLEAR     48  29  47 SE16G22   29.76F
SAINT CLOUD    CLEAR     48  25  40 SE8       29.81F
MINNEAPOLIS    PTCLDY    47  30  51 SE7       29.85S
$$

  *****  WEATHER ACROSS SOUTH DAKOTA  *****

CITY           SKY/WX    TMP DP  RH WIND       PRES   REMARKS
SIOUX FALLS    MOCLDY    59  31  34 S18G25    29.72F
BROOKINGS      PTCLDY    54  32  43 S14G20    29.71F
WATERTOWN      MOCLDY    54  32  43 S14       29.67F
HURON          CLOUDY    56  32  40 S16       29.62F
SISSETON         N/A     46  34  62 S13       29.65F
ABERDEEN       CLOUDY    57  33  40 S17       29.58F
MITCHELL       CLOUDY    57  33  40 S15       29.66F
PIERRE         CLOUDY    58  26  29 SE5       29.53F
MOBRIDGE       MOCLDY    52  29  41 SE6       29.50F
RAPID CITY     MOCLDY    54  23  30 SE5       29.53F
$$

  *****  SOME WEATHER IN NEARBY STATES *****

CITY           SKY/WX    TMP DP  RH WIND       PRES   REMARKS
GLASGOW MT     PTCLDY    56  39  53 NW23G32   29.52R
GREAT FALLS MT CLOUDY    40  23  50 SW17      29.76R
CHEYENNE WY    MOCLDY    45  21  38 W10       29.79F
SCOTTSBLUFF NE PTCLDY    63  20  19 SW14      29.66F
OMAHA NE       CLEAR     58  33  39 S10       29.83F
DES MOINES IA  CLEAR     54  33  45 S8        29.89F
DAVENPORT IA   CLEAR     43  28  55 S7        29.94F
CHICAGO IL     CLEAR     41  34  76 S5        29.96S
EAU CLAIRE WI  CLEAR     41  28  60 NE5       29.91R
LA CROSSE WI   CLEAR     40  31  70 SE7       29.91S
$$

  *****  SOME NATIONAL WEATHER *****

CITY           SKY/WX    TMP DP  RH WIND       PRES   REMARKS
LA GUARDIA NY  PTCLDY    36  27  69 NW15      29.84R
RALEIGH NC     PTCLDY    60  37  42 N7        29.87R
ATLANTA GA     RAIN      58  54  86 NW13      30.01R FOG
NEW ORLEANS LA PTCLDY    65  62  90 S8        30.04F
OKLAHOMA CITY  TSTM      61  56  83 E29G38    29.86F
ALBUQUERQUE NM PTCLDY    56  24  29 SE9       29.99F
SALT LAKE CITY CLOUDY    55  34  45 NW24G32   29.87R
LOS ANGELES CA PTCLDY    59  55  87 CALM      29.98S
BOISE ID       MOCLDY    42  29  59 NW12      30.10R
SEATTLE WA     CLOUDY    45  39  79 S5        30.21S
$$

*** WEATHER ACROSS MANITOBA...SASKATCHEWAN AND ONTARIO ***
                ***ONTARIO***

CITY           SKY/WX    TMP DP  RH WIND       PRES   REMARKS
GERALDTON      PTCLDY    14  10  85 CALM      29.97R
THUNDER BAY    MOCLDY    19  19 100 NE3       30.00S FOG
SIOUX LOOKOUT  MOCLDY    30  28  93 SE3       29.88F
TORONTO        MOCLDY    28  12  50 N9        29.99S WCI  20
BIG TROUT LK   PTCLDY     9   3  78 S5        29.89S WCI   0
PICKLE LAKE    NOT AVBL
DRYDEN         MOCLDY    32  30  93 SE10      29.85F WCI  24
KENORA         MOCLDY    36  30  80 SE12      29.79F
$$
                *** MANITOBA***

CITY           SKY/WX    TMP DP  RH WIND       PRES   REMARKS
BRANDON        PTCLDY    36  32  87 E12       29.60F
DAUPHIN        CLEAR     36  34  93 E14       29.59F
ISLAND LAKE    MOCLDY    23  19  86 SE3       29.82F
PILOT MOUND      N/A     41  32  70 SE16        N/A
THE PAS        CLOUDY    34  30  86 E12       29.63F
THOMPSON       CLOUDY    25  21  86 VRB2      29.77S
WINNIPEG       MOCLDY    39  32  75 SE15      29.71F
LYNN LAKE      FLURRIES  32  30  93 E6        29.70S
CHURCHILL      FLURRIES   5   3  92 N12       29.91R WCI -11
GILLAM         CLOUDY    23  16  74 SW3       29.79F
$$
                ***SASKATCHEWAN***

CITY           SKY/WX    TMP DP  RH WIND       PRES   REMARKS
ESTEVAN        CLOUDY    46  37  71 E13G21    29.42F
KINDERSLEY     CLOUDY    41  36  81 NW22G30   29.48S
LLOYDMINSTER   PTCLDY    37  34  87 W23G29    29.40R
PRINCE ALBERT  MOCLDY    37  32  81 E14       29.36F
REGINA         NOT AVBL


USA.gov is the U.S. government's official web portal to all federal, state and local government web resources and services.